Flag for Switzerland Weather past 2 weeks in Solothurn, Solothurn, Switzerland

Now
64 °F

Mild.


Feels Like: 64 °F
Forecast: 60 / 86 °F
Wind: 2 mph from East

Location: Grenchen

Current Time: Aug 30, 2015 at 3:39:35 AM

Latest Report: Aug 30, 2015 at 3:00 AM


Visibility: N/A

Pressure: 30.14 "Hg

Humidity: 93%

Dew point: 62 °F

Location of SolothurnLocation

Historic Weather in Solothurn — Graph

°F

Solothurn temperature yesterday

Maximum temperature yesterday: 89 °F (at 5:00 PM)
Minimum temperature yesterday: 59 °F (at 7:00 AM)
Average temperature yesterday: 75 °F

Past Weeks' High & Low Weather Summary

 TemperatureHumidityPressure
High89 °F (Aug 29, 5:00 PM)100% (Aug 15, 3:00 AM)30.27 "Hg (Aug 15, 3:00 AM)
Low47 °F (Aug 26, 6:00 AM)30% (Aug 25, 4:00 PM)29.73 "Hg (Aug 24, 7:00 AM)
Average64 °F73%30.02 "Hg
* Reported Aug 15 2:00 AM — Aug 30 2:00 AM, Solothurn, Weather by CustomWeather, © 2015

Note: Actual official high and low records may vary slightly from our data, if they occured in-between our weather recording intervals... More about our weather records

Advertising

Solothurn weather history for previous 24 hours

 ConditionsComfort  
Time TempWeatherWind HumidityBarometerVisibility
2:00 AM
Sun, Aug 30
67 °FMild.3 mph84%30.13 "HgN/A
1:00 AM70 °FMild.3 mph79%30.12 "HgN/A
12:00 AM69 °FMild.2 mph80%30.12 "HgN/A
11:00 PM
Sat, Aug 29
72 °FMild.2 mph75%30.10 "HgN/A
10:00 PM74 °FMild.3 mph69%30.09 "HgN/A
9:00 PM76 °FMild.3 mph66%30.07 "HgN/A
7:00 PM87 °FWarm.3 mph40%30.01 "HgN/A
6:00 PM89 °FHot.6 mph36%30.02 "HgN/A
5:00 PM89 °FHot.8 mph34%30.02 "HgN/A
4:00 PM89 °FHot.6 mph37%30.04 "HgN/A
3:00 PM87 °FWarm.5 mph43%30.07 "HgN/A
1:00 PM82 °FWarm.3 mph50%30.13 "HgN/A
12:00 PM79 °FWarm.3 mph56%30.16 "HgN/A
10:00 AM72 °FMild.2 mph71%30.18 "HgN/A
9:00 AM66 °FMild.1 mph88%30.19 "HgN/A
7:00 AM59 °FCool.No wind98%30.20 "HgN/A
4:00 AM61 °FCool.1 mph96%30.18 "HgN/A
3:00 AM62 °FCool.1 mph94%30.17 "HgN/A
Weather by CustomWeather, © 2015

See weather overviewHow to use our weather pages